Weather History for KAKO - October, 2010

Change the Weather History Date:

Monday, October 25, 2010

  Actual Average Record
Temperature  
Mean Temperature 48 °F 47 °F  
Max Temperature 61 °F 60 °F 85 °F (1940)
Min Temperature 37 °F 34 °F 18 °F (1942)
Degree Days  
Heating Degree Days 16    
Month to date heating degree days  
Cooling Degree Days 0    
Month to date cooling degree days  
Moisture  
Dew Point 29 °F    
Average Humidity 48    
Maximum Humidity 70    
Minimum Humidity 24    
Precipitation  
Precipitation 0.00 in 0.02 in 0.36 in (1941)
Month to date precipitation 0.96  
Year to date precipitation 15.61  
Sea Level Pressure  
Sea Level Pressure 29.29 in    
Wind  
Wind Speed 18 mph (West)    
Max Wind Speed 41 mph    
Max Gust Speed 53 mph    
Visibility 10 miles    
Events Rain    
T = Trace of Precipitation, MM = Missing Value Source: NWS Daily Summary

Daily Weather History Graph

Daily Weather History Graph

Search for Another Location

Airport or City:

Trip Planner

Search our weather history database for the weather conditions in past years. The results will help you decide how hot, cold, wet, or windy it might be!

Date:

Astronomy

Oct. 25, 2010 Rise Set
Actual Time 7:14 AM MDT 5:58 PM MDT
Civil Twilight 6:46 AM MDT 6:26 PM MDT
Nautical Twilight 6:14 AM MDT 6:58 PM MDT
Astronomical Twilight 5:43 AM MDT 7:29 PM MDT
Moon 7:28 PM MDT (10/25) 9:59 AM MDT (10/25)
Length of Visible Light 11h 40m
Length of Day
10h 44m
Waning Gibbous, 93% of the Moon is Illuminated
Oct 25
Waning Gibbous
Oct 30
Last Quarter
Nov 5
New
Nov 13
First Quarter
Nov 21
Full

Hourly Weather History & Observations

Time (MDT) Temp. Windchill Dew Point Humidity Pressure Visibility Wind Dir Wind Speed Gust Speed Precip Events Conditions
12:53 AM 55.0 °F - 30.9 °F 40% 29.29 in 10.0 mi SSW 12.7 mph - N/A   Clear
1:53 AM 54.0 °F - 32.0 °F 43% 29.26 in 10.0 mi SSW 12.7 mph - N/A   Clear
2:53 AM 55.9 °F - 33.1 °F 42% 29.22 in 10.0 mi SSW 10.4 mph - N/A   Clear
3:53 AM 55.0 °F - 33.1 °F 43% 29.16 in 10.0 mi SSW 9.2 mph - N/A   Clear
4:53 AM 57.0 °F - 34.0 °F 42% 29.12 in 10.0 mi SSW 8.1 mph - N/A   Clear
5:53 AM 59.0 °F - 34.0 °F 39% 29.10 in 10.0 mi SSW 10.4 mph - N/A   Clear
6:53 AM 60.1 °F - 36.0 °F 41% 29.08 in 10.0 mi SSW 17.3 mph - N/A   Clear
7:53 AM 59.0 °F - 37.0 °F 44% 29.07 in 10.0 mi SW 13.8 mph - N/A   Clear
8:53 AM 55.0 °F - 37.0 °F 51% 29.19 in 10.0 mi NW 28.8 mph 39.1 mph N/A   Mostly Cloudy
9:53 AM 53.1 °F - 34.0 °F 48% 29.23 in 10.0 mi NW 29.9 mph 42.6 mph N/A   Overcast
10:53 AM 48.9 °F - 37.0 °F 64% 29.28 in 10.0 mi WNW 24.2 mph 34.5 mph 0.00 in Rain Light Rain
11:34 AM 51.8 °F - 39.2 °F 62% 29.34 in 10.0 mi NW 18.4 mph 29.9 mph 0.00 in   Scattered Clouds
1:53 PM 54.0 °F - 23.0 °F 30% 29.25 in 10.0 mi NW 35.7 mph 46.0 mph N/A   Clear
2:53 PM 52.0 °F - 21.9 °F 31% 29.23 in 10.0 mi NW 34.5 mph 42.6 mph N/A   Clear
3:53 PM 51.1 °F - 18.0 °F 27% 29.28 in 10.0 mi NW 36.8 mph 52.9 mph N/A   Clear
4:53 PM 48.9 °F - 12.9 °F 24% 29.32 in 10.0 mi NW 41.4 mph 51.8 mph N/A   Partly Cloudy
5:53 PM 43.0 °F 33.1 °F 25.0 °F 49% 29.39 in 10.0 mi NW 26.5 mph 33.4 mph N/A   Clear
6:53 PM 42.1 °F 32.8 °F 24.1 °F 49% 29.42 in 10.0 mi NW 21.9 mph 27.6 mph N/A   Clear
7:53 PM 39.0 °F 27.6 °F 27.0 °F 62% 29.46 in 10.0 mi NW 27.6 mph 41.4 mph N/A   Overcast
8:53 PM 37.0 °F 25.9 °F 28.0 °F 70% 29.49 in 10.0 mi WNW 23.0 mph 33.4 mph N/A   Partly Cloudy
9:53 PM 37.0 °F 27.0 °F 28.0 °F 70% 29.51 in 10.0 mi WNW 18.4 mph 28.8 mph N/A   Scattered Clouds
10:53 PM 39.0 °F 29.6 °F 26.1 °F 60% 29.52 in 10.0 mi WNW 18.4 mph - N/A   Overcast
11:53 PM 37.0 °F 27.7 °F 27.0 °F 67% 29.52 in 10.0 mi West 16.1 mph - N/A   Overcast